Location: Newark
(39.0622°N, 106.5590°E)
Time: 07:25:39
(UTC+00:00)

Courier 1B - Pass Details

Date: 30 January 2020
Orbit: 962 x 1209 km, 28.3° (Epoch: 20 February)

Event Time Altitude Azimuth Distance (km) Brightness Sun altitude
Rises 22:24:02 0° 261° (W) 3,896 - -19.2°
Reaches altitude 10° 22:27:35 10° 244° (WSW) 2,983 - -18.5°
Exits shadow 22:29:09 14° 234° (SW) 2,684 9.4 -18.2°
Maximum altitude 22:32:33 19° 202° (SSW) 2,404 9.4 -17.6°
Drops below altitude 10° 22:37:41 10° 159° (SSE) 3,086 10.5 -16.6°
Sets 22:41:28 0° 143° (SE) 4,075 11.5 -15.8°
